This demonstration page uses our WeatherBlox Daily Observations layout. Learn more.

Left ArrowRight Arrow

Hourly Observations for January 10, 2022

Temp ( °F °C ) Dew Point ( °F °C ) Humidity (%) Winds ( mph kmh ) Pressure ( in mb ) Visibility ( mi km ) Precip ( " mm )
12:53 am 00:53 Mostly Cloudy 37 2.8 17 -8.3 44 44 N 3 6 30.59 1036 10 16 0.00 0.00
1:53 am 01:53 Mostly Clear 37 2.8 18 -7.8 46 46 NW 3 6 30.59 1036 10 16 0.00 0.00
2:53 am 02:53 Mostly Cloudy 37 2.8 18 -7.8 46 46 N 6 9 30.59 1036 10 16 0.00 0.00
3:53 am 03:53 Partly Cloudy 36 2.2 18 -7.8 48 48 N 6 9 30.60 1036 10 16 0.00 0.00
4:53 am 04:53 Partly Cloudy 35 1.7 18 -7.8 50 50 N 7 11 30.60 1036 10 16 0.00 0.00
5:53 am 05:53 Clear 35 1.7 15 -9.4 44 44 NNE 7 11 30.62 1037 10 16 0.00 0.00
6:53 am 06:53 Partly Cloudy 35 1.7 14 -10 42 42 N 7 11 30.63 1037 10 16 0.00 0.00
7:53 am 07:53 Clear 34 1.1 14 -10 44 44 NNE 6 9 30.65 1038 10 16 0.00 0.00
8:53 am 08:53 Sunny 34 1.1 13 -10.6 42 42 NNE 6 9 30.67 1039 10 16 0.00 0.00
9:53 am 09:53 Mostly Sunny 36 2.2 13 -10.6 39 39 NNE 5 7 30.70 1040 10 16 0.00 0.00
10:53 am 10:53 Sunny 39 3.9 12 -11.1 33 33 Calm 30.71 1040 10 16 0.00 0.00
11:53 am 11:53 Sunny 41 5 10 -12.2 28 28 Calm 30.69 1039 10 16 0.00 0.00
12:53 pm 12:53 Mostly Cloudy 43 6.1 8 -13.3 24 24 Calm 30.67 1039 10 16 0.00 0.00
1:53 pm 13:53 Mostly Cloudy 45 7.2 4 -15.6 18 18 SE 5 7 30.61 1037 10 16 0.00 0.00
2:53 pm 14:53 Mostly Sunny 47 8.3 5 -15 18 18 E 5 7 30.57 1035 10 16 0.00 0.00
3:53 pm 15:53 Cloudy 48 8.9 6 -14.4 18 18 ESE 3 6 30.57 1035 10 16 0.00 0.00
4:53 pm 16:53 Cloudy 48 8.9 6 -14.4 18 18 Calm 30.55 1035 10 16 0.00 0.00
5:53 pm 17:53 Mostly Sunny 48 8.9 6 -14.4 18 18 NNE 6 9 30.54 1034 10 16 0.00 0.00
6:53 pm 18:53 Clear 46 7.8 7 -13.9 20 20 Calm 30.56 1035 10 16 0.00 0.00
7:53 pm 19:53 Mostly Clear 44 6.7 8 -13.3 23 23 ENE 3 6 30.56 1035 10 16 0.00 0.00
8:53 pm 20:53 Clear 43 6.1 10 -12.2 26 26 SE 6 9 30.57 1035 10 16 0.00 0.00
9:53 pm 21:53 Cloudy 43 6.1 9 -12.8 25 25 ESE 5 7 30.56 1035 10 16 0.00 0.00
10:53 pm 22:53 Cloudy 43 6.1 10 -12.2 26 26 ESE 3 6 30.55 1035 10 16 0.00 0.00
11:53 pm 23:53 Mostly Cloudy 40 4.4 10 -12.2 29 29 S 5 7 30.55 1035 10 16 0.00 0.00

Powered by AerisWeather